This is the latest recevied weather packets stored in our database for station/object DW9280. If no packets are shown the sender has not sent any weather packets the latest 10 day(s).
| Time | Temp. | Humidity | Pressure | Rain* | Wind** | Luminosity | Snow |
|---|---|---|---|---|---|---|---|
| 1787936252 | 17.22° C | 94% | 1007 hPa | 0 mm | - | 207 W/m² | - |
| 1787936062 | 17.22° C | 94% | 1007 hPa | 0 mm | - | 139 W/m² | - |
| 1787935649 | 17.22° C | 94% | 1007.2 hPa | 0 mm | - | 176 W/m² | - |
| 1787935350 | 17.22° C | 94% | 1007.1 hPa | 0 mm | - | 155 W/m² | - |
| 1787935049 | 17.22° C | 94% | 1007.1 hPa | 0 mm | - | 109 W/m² | - |
| 1787934747 | 17.22° C | 94% | 1007.2 hPa | 0 mm | - | 111 W/m² | - |
| 1787934448 | 17.22° C | 94% | 1007.3 hPa | 0 mm | - | 111 W/m² | - |
| 1787934146 | 17.22° C | 94% | 1007.4 hPa | 0 mm | - | 111 W/m² | - |
| 1787933844 | 17.22° C | 94% | 1007.4 hPa | 0 mm | - | 93 W/m² | - |
| 1787933540 | 17.22° C | 94% | 1007.3 hPa | 0 mm | - | 74 W/m² | - |
| 1787933238 | 17.22° C | 94% | 1007.4 hPa | 0 mm | - | 86 W/m² | - |
| 1787932938 | 16.67° C | 94% | 1007.3 hPa | 0.25 mm | - | 111 W/m² | - |
| 1787932752 | 16.67° C | 94% | 1007.4 hPa | 0.51 mm | - | 148 W/m² | - |
| 1787932335 | 16.67° C | 94% | 1007.4 hPa | 0.51 mm | - | 167 W/m² | - |
| 1787932152 | 16.67° C | 94% | 1007.4 hPa | 1.27 mm | - | 188 W/m² | - |
| 1787931728 | 16.67° C | 94% | 1007.4 hPa | 1.78 mm | - | 167 W/m² | - |
| 1787931427 | 16.67° C | 94% | 1007.5 hPa | 2.29 mm | - | 156 W/m² | - |
| 1787931129 | 16.67° C | 93% | 1007.3 hPa | 2.79 mm | - | 146 W/m² | - |
| 1787930827 | 16.67° C | 93% | 1007.4 hPa | 3.3 mm | - | 125 W/m² | - |
| 1787930527 | 16.67° C | 93% | 1007.3 hPa | 3.81 mm | - | 135 W/m² | - |
| 1787930227 | 16.67° C | 93% | 1007.4 hPa | 4.32 mm | - | 120 W/m² | - |
| 1787929916 | 16.67° C | 93% | 1007.4 hPa | 4.83 mm | - | 95 W/m² | - |
| 1787929613 | 16.67° C | 93% | 1007.5 hPa | 5.08 mm | - | 70 W/m² | - |
| 1787929313 | 16.67° C | 92% | 1007.5 hPa | 5.33 mm | - | 51 W/m² | - |
| 1787929017 | 16.67° C | 92% | 1007.5 hPa | 5.59 mm | - | 40 W/m² | - |
* Rain latest hour (hover to see other rain measurements)
** Current wind speed in m/s (hover to see current wind gust speed)